Talkeetna, AK

1:08 AM AKDT on April 24, 2018 (GMT -0800)
Talkeetna

Weather History for PATK - September, 2012

Change the Weather History Date:

Monday, September 3, 2012

  Actual Average Record
Temperature  
Mean Temperature 49 °F -  
Max Temperature 52 °F 60 °F 73 °F (2016)
Min Temperature 46 °F 39 °F 24 °F (1980)
Degree Days  
Heating Degree Days 16    
Moisture  
Dew Point 47 °F    
Average Humidity 93    
Maximum Humidity 96    
Minimum Humidity 87    
Precipitation  
Precipitation 0.31 in - - ()
Sea Level Pressure  
Sea Level Pressure 29.63 in    
Wind  
Wind Speed 3 mph (SSE)    
Max Wind Speed 8 mph    
Max Gust Speed -    
Visibility 8 miles    
Events Rain    
Averages and records for this station are not official NWS values.
T = Trace of Precipitation, MM = Missing Value Source: NWS Daily Summary

Daily Weather History Graph

Daily Weather History Graph

Search for Another Location

Airport or City:

Astronomy

Sep. 03, 2012 Rise Set
Actual Time 6:55 AM AKDT 9:01 PM AKDT
Civil Twilight 6:07 AM AKDT 9:49 PM AKDT
Nautical Twilight 5:03 AM AKDT 10:52 PM AKDT
Astronomical Twilight 3:34 AM AKDT 12:17 AM AKDT
Moon 8:56 PM AKDT (9/3) 11:37 AM AKDT (9/3)
Length of Visible Light 15h 41m
Length of Day
14h 05m
Waning Gibbous, 89% of the Moon is Illuminated
Sep 3
Waning Gibbous
Sep 8
Last Quarter
Sep 15
New
Sep 22
First Quarter
Sep 29
Full

Hourly Weather History & Observations

Time (AKDT) Temp. Windchill Dew Point Humidity Pressure Visibility Wind Dir Wind Speed Gust Speed Precip Events Conditions
12:53 AM 46.9 °F - 45.0 °F 93% 29.67 in 10.0 mi North 3.5 mph - 0.02 in Rain Light Rain
1:53 AM 46.9 °F - 45.0 °F 93% 29.66 in 10.0 mi NNW 3.5 mph - 0.00 in Rain Light Rain
2:53 AM 46.9 °F - 45.0 °F 93% 29.65 in 10.0 mi North 4.6 mph - 0.01 in   Overcast
3:53 AM 46.0 °F 43.9 °F 45.0 °F 96% 29.63 in 10.0 mi North 4.6 mph - 0.00 in   Overcast
4:53 AM 46.9 °F - 45.0 °F 93% 29.60 in 10.0 mi North 4.6 mph - N/A   Overcast
5:53 AM 46.9 °F - 45.0 °F 93% 29.58 in 10.0 mi NE 4.6 mph - 0.00 in   Overcast
6:53 AM 46.9 °F - 45.0 °F 93% 29.57 in 10.0 mi Calm Calm - N/A   Overcast
7:53 AM 46.9 °F - 45.0 °F 93% 29.56 in 10.0 mi Calm Calm - 0.00 in Rain Light Rain
8:53 AM 46.9 °F - 45.0 °F 93% 29.55 in 10.0 mi Calm Calm - 0.00 in Rain Light Rain
9:53 AM 48.0 °F - 45.0 °F 89% 29.56 in 10.0 mi NNW 4.6 mph - 0.01 in Rain Light Rain
10:53 AM 48.0 °F - 46.0 °F 93% 29.55 in 10.0 mi Calm Calm - 0.03 in Rain Light Rain
11:53 AM 48.9 °F - 46.9 °F 93% 29.55 in 10.0 mi Calm Calm - 0.03 in Rain Light Rain
12:53 PM 51.1 °F - 48.0 °F 89% 29.56 in 10.0 mi NNE 3.5 mph - 0.02 in Rain Light Rain
1:53 PM 51.1 °F - 50.0 °F 96% 29.59 in 9.0 mi Calm Calm - 0.03 in Rain Light Rain
2:53 PM 52.0 °F - 50.0 °F 93% 29.58 in 6.0 mi NE 3.5 mph - 0.03 in Rain Light Rain
3:21 PM 51.8 °F - 50.0 °F 94% 29.58 in 3.0 mi Calm Calm - 0.05 in Rain Light Rain
3:53 PM 52.0 °F - 50.0 °F 93% 29.60 in 2.0 mi Calm Calm - 0.10 in Rain Rain
4:16 PM 51.8 °F - 50.0 °F 94% 29.59 in 1.8 mi Calm Calm - 0.06 in Rain Heavy Rain
4:21 PM 51.8 °F - 50.0 °F 94% 29.59 in 2.5 mi Calm Calm - 0.07 in Rain Light Rain
4:23 PM 51.8 °F - 50.0 °F 94% 29.59 in 3.0 mi Calm Calm - 0.07 in Rain Light Rain
4:53 PM 51.1 °F - 50.0 °F 96% 29.61 in 3.0 mi WSW 3.5 mph - 0.10 in Rain Rain
5:00 PM 51.8 °F - 50.0 °F 94% 29.60 in 5.0 mi Variable 3.5 mph - 0.00 in Rain Light Rain
5:53 PM 51.1 °F - 48.9 °F 92% 29.62 in 4.0 mi South 5.8 mph - 0.04 in Rain Light Rain
6:21 PM 51.8 °F - 48.2 °F 88% 29.62 in 3.0 mi South 6.9 mph - 0.04 in Rain Rain
6:33 PM 51.8 °F - 48.2 °F 88% 29.63 in 6.0 mi South 6.9 mph - 0.07 in Rain Rain
6:53 PM 50.0 °F - 48.9 °F 96% 29.65 in 6.0 mi South 6.9 mph - 0.12 in Rain Light Rain
7:01 PM 50.0 °F - 48.2 °F 94% 29.63 in 5.0 mi South 3.5 mph - 0.01 in Rain Heavy Rain
7:08 PM 50.0 °F - 48.2 °F 94% 29.64 in 5.0 mi South 5.8 mph - 0.03 in Rain Light Rain
7:53 PM 50.0 °F - 48.0 °F 93% 29.66 in 10.0 mi SSE 4.6 mph - 0.04 in   Overcast
8:53 PM 50.0 °F - 48.0 °F 93% 29.68 in 10.0 mi South 4.6 mph - 0.00 in   Overcast
9:15 PM 50.0 °F - 46.4 °F 87% 29.68 in 10.0 mi South 6.9 mph - N/A   Overcast
9:32 PM 50.0 °F - 46.4 °F 87% 29.69 in 10.0 mi South 8.1 mph - N/A   Overcast
9:53 PM 48.9 °F - 46.9 °F 93% 29.70 in 10.0 mi South 5.8 mph - 0.00 in   Overcast
10:50 PM 48.2 °F - 46.4 °F 93% 29.72 in 10.0 mi Calm Calm - N/A   Overcast
10:53 PM 48.9 °F - 46.9 °F 93% 29.73 in 10.0 mi Calm Calm - N/A   Overcast
11:07 PM 48.2 °F - 46.4 °F 93% 29.73 in 10.0 mi Calm Calm - N/A   Overcast
11:53 PM 48.9 °F - 46.9 °F 93% 29.76 in 10.0 mi South 5.8 mph - N/A   Overcast